Poughkeepsie, NY

7:55 AM EST on November 19, 2019 (GMT -0500)
Dutchess County

Weather History for KPOU - October, 2019

Change the Weather History Date:

Tuesday, October 22, 2019

  Actual Average Record
Temperature  
Mean Temperature 51 °F 49 °F  
Max Temperature 58 °F 61 °F 85 °F (1979)
Min Temperature 43 °F 37 °F 22 °F (1983)
Degree Days  
Heating Degree Days 14 16  
Month to date heating degree days 238 279  
Since 1 July heating degree days 305 419  
Cooling Degree Days 0 0  
Month to date cooling degree days 12 0  
Year to date cooling degree days 807 668  
Moisture  
Dew Point 50 °F    
Average Humidity 84    
Maximum Humidity 96    
Minimum Humidity 72    
Precipitation  
Precipitation 0.23 in 0.14 in 3.42 in (1995)
Month to date precipitation 3.61 3.26  
Year to date precipitation 31.34 38.32  
Sea Level Pressure  
Sea Level Pressure 29.97 in    
Wind  
Wind Speed 4 mph (East)    
Max Wind Speed 14 mph    
Max Gust Speed 19 mph    
Visibility 9 miles    
Events Rain    
T = Trace of Precipitation, MM = Missing Value Source: NWS Daily Summary

Daily Weather History Graph

Daily Weather History Graph

Search for Another Location

Airport or City:

Astronomy

Oct. 22, 2019 Rise Set
Actual Time 7:15 AM EDT 6:04 PM EDT
Civil Twilight 6:47 AM EDT 6:32 PM EDT
Nautical Twilight 6:14 AM EDT 7:04 PM EDT
Astronomical Twilight 5:42 AM EDT 7:36 PM EDT
Moon 12:15 AM EDT (10/22) 3:17 PM EDT (10/22)
Length of Visible Light 11h 45m
Length of Day
10h 48m
Last Quarter, 37% of the Moon is Illuminated
Oct 22
Last Quarter
Oct 27
New
Nov 4
First Quarter
Nov 12
Full
Nov 19
Last Quarter

Hourly Weather History & Observations

Time (EDT) Temp. Windchill Dew Point Humidity Pressure Visibility Wind Dir Wind Speed Gust Speed Precip Events Conditions
12:53 AM 44.1 °F - 42.1 °F 93% 30.13 in 10.0 mi Calm Calm - N/A   Clear
1:53 AM 43.0 °F - 41.0 °F 93% 30.11 in 8.0 mi Calm Calm - N/A   Clear
2:53 AM 44.1 °F - 42.1 °F 93% 30.11 in 10.0 mi Calm Calm - N/A   Clear
3:53 AM 45.0 °F 43.5 °F 43.0 °F 93% 30.07 in 10.0 mi NNE 3.5 mph - N/A   Clear
4:53 AM 46.0 °F - 44.1 °F 93% 30.10 in 10.0 mi Calm Calm - N/A   Scattered Clouds
5:53 AM 48.0 °F - 45.0 °F 89% 30.06 in 10.0 mi Calm Calm - N/A   Overcast
6:53 AM 48.0 °F - 46.0 °F 93% 30.08 in 10.0 mi Calm Calm - N/A   Overcast
7:53 AM 48.9 °F - 46.0 °F 90% 30.06 in 10.0 mi Calm Calm - N/A   Overcast
8:21 AM 48.9 °F - 46.0 °F 90% 30.08 in 10.0 mi Calm Calm - N/A   Overcast
8:53 AM 50.0 °F - 46.0 °F 86% 30.08 in 10.0 mi Calm Calm - N/A   Overcast
9:51 AM 51.8 °F - 48.2 °F 88% 30.08 in 10.0 mi Calm Calm - N/A   Overcast
9:53 AM 52.0 °F - 48.0 °F 86% 30.08 in 10.0 mi Calm Calm - N/A   Overcast
10:53 AM 54.0 °F - 48.0 °F 80% 30.06 in 10.0 mi Calm Calm - N/A   Overcast
11:08 AM 55.9 °F - 48.0 °F 75% 30.05 in 10.0 mi North - - N/A   Overcast
11:53 AM 57.0 °F - 48.9 °F 74% 30.03 in 10.0 mi Variable 6.9 mph - N/A   Overcast
12:53 PM 57.0 °F - 48.9 °F 74% 30.02 in 10.0 mi Variable 6.9 mph - N/A   Overcast
1:17 PM 55.9 °F - 50.0 °F 80% 30.01 in 10.0 mi Variable 5.8 mph - N/A   Overcast
1:53 PM 57.0 °F - 51.1 °F 81% 29.97 in 10.0 mi ESE 11.5 mph 19.6 mph N/A   Overcast
2:53 PM 57.0 °F - 52.0 °F 83% 29.92 in 10.0 mi Variable 6.9 mph 18.4 mph N/A   Overcast
3:53 PM 57.9 °F - 52.0 °F 81% 29.90 in 10.0 mi Variable 4.6 mph - N/A   Overcast
4:53 PM 57.0 °F - 52.0 °F 83% 29.90 in 10.0 mi East 8.1 mph - N/A   Overcast
5:53 PM 55.9 °F - 53.1 °F 90% 29.89 in 4.0 mi East 4.6 mph - N/A   Overcast
6:11 PM 55.9 °F - 53.1 °F 90% 29.89 in 6.0 mi ENE 4.6 mph - N/A   Overcast
6:53 PM 57.0 °F - 54.0 °F 89% 29.88 in 8.0 mi Variable 3.5 mph - N/A   Overcast
7:53 PM 57.0 °F - 54.0 °F 89% 29.87 in 5.0 mi ESE 8.1 mph - 0.03 in Rain Light Rain
8:07 PM 57.0 °F - 54.0 °F 89% 29.89 in 6.0 mi ESE 6.9 mph - 0.01 in Rain Light Rain
8:36 PM 57.0 °F - 55.0 °F 93% 29.86 in 6.0 mi East 4.6 mph - 0.07 in Rain Light Rain
8:43 PM 57.0 °F - 55.0 °F 93% 29.86 in 7.0 mi ENE 4.6 mph - 0.08 in Rain Light Rain
8:53 PM 57.0 °F - 55.0 °F 93% 29.85 in 10.0 mi NE 3.5 mph - 0.08 in Rain Light Rain
9:53 PM 57.9 °F - 55.0 °F 90% 29.83 in 10.0 mi Variable 5.8 mph - 0.07 in   Overcast
10:53 PM 57.9 °F - 55.0 °F 90% 29.79 in 9.0 mi ESE 11.5 mph - N/A   Overcast
11:35 PM 57.9 °F - 55.0 °F 90% 29.78 in 9.0 mi ESE 8.1 mph - N/A   Overcast
11:53 PM 57.9 °F - 55.0 °F 90% 29.77 in 7.0 mi SE 5.8 mph - N/A   Overcast